Погода в Райсио

Финляндия     60°28′21″N   22°09′42″E
темп.,
°C
ветер,
м/с
пор.,
м/с
влажн.,
%
обл.,
%
осадки,
мм/ч
давл.,
гПа
погр.,
м
7 мая, пт
пт700:00+4всв1297100 0.1 99667
03:00+4юз1196100 0.1 99650
06:00+4з1195100 0.0 99737
09:00+5з1185100 0.1 997467
12:00+5зюз3389100 0.6 999617
15:00+4зюз2393100 1.0 1000558
18:00+3ссз2393100 0.3 1001510
21:00+3ссз3797100 0.9 1002542
8 мая, сб
сб800:00+2ссз369591 0.1 1004341
03:000ссз26936 0.1 1005163
06:00−1с25875 0.0 1006125
09:00+4сз24655 0.0 1007492
12:00+7зюз45575 0.0 10081105
15:00+7зюз46603 0.1 1009952
18:00+8з46460 0.0 10091291
21:00+4зюз36680 0.0 1010215
9 мая, вс
вс900:00+3юз228498 0.0 101141
03:00+4ю2487100 0.0 101191
06:00+4ю269297 0.1 1010225
09:00+6ююз4784100 0.1 1010417
12:00+7юз4775100 0.0 1012534
15:00+8юз5965100 0.0 1013645
18:00+7ююз5969100 0.0 1013561
21:00+5юв51292100 0.7 1012908
10 мая, пн
пн1000:00+6ююв51095100 1.3 1010535
03:00+6ю3895100 1.6 1010241
06:00+6ююв3795100 0.5 1011220
09:00+9ю5988100 0.6 1012266
12:00+8ю51491100 0.0 1013350
15:00+10ю71676100 0.0 1014446
18:00+11ю7207014 0.0 1014591
21:00+9ююз51880100 0.0 1013517
11 мая, вт
вт1100:00+10ю61878100 0.0 1014549
03:00+10ю61886100 0.0 1014562
06:00+9ю6148960 0.0 1014427
09:00+10ю51187100 0.0 1016343
12:00+11ю5883100 0.0 1017365
15:00+13ю5107983 0.0 1018464
18:00+15ю377499 0.0 1018446
21:00+14вюв23826 0.0 101775